This is the latest recevied weather packets stored in our database for station/object DL6MM-4. If no packets are shown the sender has not sent any weather packets the latest 10 day(s).
| Time | Temp. | Humidity | Pressure | Rain* | Wind** | Luminosity | Snow |
|---|---|---|---|---|---|---|---|
| 1777642755 | 21.67° C | 38% | 1024.7 hPa | 0 mm | - | - | - |
| 1777642155 | 21.67° C | 39% | 1024.7 hPa | 0 mm | - | - | - |
| 1777641555 | 21.67° C | 39% | 1024.8 hPa | 0 mm | - | - | - |
| 1777640955 | 21.67° C | 38% | 1024.9 hPa | 0 mm | - | - | - |
| 1777640355 | 21.11° C | 41% | 1025 hPa | 0 mm | - | - | - |
| 1777639755 | 21.11° C | 41% | 1025.3 hPa | 0 mm | - | - | - |
| 1777639155 | 21.11° C | 43% | 1025.4 hPa | 0 mm | - | - | - |
| 1777638555 | 21.11° C | 42% | 1025.5 hPa | 0 mm | - | - | - |
| 1777637955 | 20.56° C | 41% | 1025.5 hPa | 0 mm | - | - | - |
| 1777637355 | 20.56° C | 42% | 1025.7 hPa | 0 mm | - | - | - |
| 1777636755 | 20.56° C | 42% | 1025.8 hPa | 0 mm | - | - | - |
| 1777636155 | 20.56° C | 43% | 1026 hPa | 0 mm | - | - | - |
| 1777635555 | 20° C | 43% | 1026 hPa | 0 mm | - | - | - |
| 1777634955 | 20° C | 43% | 1026.2 hPa | 0 mm | - | - | - |
| 1777634355 | 20° C | 44% | 1026.3 hPa | 0 mm | - | - | - |
| 1777633755 | 19.44° C | 47% | 1026.4 hPa | 0 mm | - | - | - |
| 1777633155 | 19.44° C | 45% | 1026.5 hPa | 0 mm | - | - | - |
| 1777632555 | 18.89° C | 46% | 1026.5 hPa | 0 mm | - | - | - |
| 1777631955 | 19.44° C | 48% | 1026.5 hPa | 0 mm | - | - | - |
| 1777631355 | 18.89° C | 47% | 1026.8 hPa | 0 mm | - | - | - |
| 1777630755 | 18.33° C | 47% | 1026.9 hPa | 0 mm | - | - | - |
| 1777630155 | 18.33° C | 49% | 1026.9 hPa | 0 mm | - | - | - |
| 1777629555 | 18.33° C | 48% | 1027 hPa | 0 mm | - | - | - |
| 1777628955 | 18.33° C | 49% | 1027.2 hPa | 0 mm | - | - | - |
| 1777628355 | 17.78° C | 47% | 1027 hPa | 0 mm | - | - | - |
* Rain latest hour (hover to see other rain measurements)
** Current wind speed in m/s (hover to see current wind gust speed)